Time,TemperatureF,DewpointF,PressureIn,WindDirection,WindDirectionDegrees,WindSpeedMPH,WindSpeedGustMPH,Humidity,HourlyPrecipIn,Conditions,Clouds,dailyrainin,SoftwareType,DateUTC
2013-02-19 00:00:00,50.8,43.5,29.99,NNW,345,19.0,23.0,76,0.00,,,0.00,WeatherCatV1.02B3,2013-02-19 06:00:00,
2013-02-19 00:05:00,50.1,41.8,30.00,NNW,342,19.0,27.0,73,0.00,,,0.00,WeatherCatV1.02B3,2013-02-19 06:05:00,
2013-02-19 00:10:00,49.4,41.5,30.00,NNW,342,18.0,19.0,74,0.00,,,0.00,WeatherCatV1.02B3,2013-02-19 06:10:00,
2013-02-19 00:15:00,49.0,40.7,30.00,NW,320,24.0,24.0,73,0.00,,,0.00,WeatherCatV1.02B3,2013-02-19 06:15:00,
2013-02-19 00:20:00,48.7,40.8,30.01,NNW,348,10.0,17.0,74,0.00,,,0.00,WeatherCatV1.02B3,2013-02-19 06:20:00,
2013-02-19 00:25:00,48.4,40.8,30.01,NNW,338,11.0,16.0,75,0.00,,,0.00,WeatherCatV1.02B3,2013-02-19 06:25:00,
2013-02-19 00:30:00,48.2,41.0,30.01,NNW,329,12.0,15.0,76,0.00,,,0.00,WeatherCatV1.02B3,2013-02-19 06:30:00,
2013-02-19 00:35:00,48.0,41.1,30.02,NNW,346,12.0,13.0,77,0.00,,,0.00,WeatherCatV1.02B3,2013-02-19 06:35:00,
2013-02-19 00:40:00,47.9,41.4,30.02,NNW,343,9.0,11.0,78,0.00,,,0.00,WeatherCatV1.02B3,2013-02-19 06:40:00,
2013-02-19 00:45:00,47.7,41.2,30.02,NNW,346,13.0,13.0,78,0.00,,,0.00,WeatherCatV1.02B3,2013-02-19 06:45:00,
2013-02-19 00:50:00,47.5,41.0,30.03,North,355,10.0,11.0,78,0.00,,,0.00,WeatherCatV1.02B3,2013-02-19 06:50:00,
2013-02-19 00:55:00,47.4,40.9,30.03,NNW,342,9.0,15.0,78,0.00,,,0.00,WeatherCatV1.02B3,2013-02-19 06:55:00,
2013-02-19 01:00:00,47.2,40.7,30.04,North,355,14.0,14.0,78,0.00,,,0.00,WeatherCatV1.02B3,2013-02-19 07:00:00,
2013-02-19 01:05:00,47.3,40.5,30.04,North,355,12.0,18.0,77,0.00,,,0.00,WeatherCatV1.02B3,2013-02-19 07:05:00,
2013-02-19 01:10:00,47.2,40.4,30.04,NNW,342,10.0,16.0,77,0.00,,,0.00,WeatherCatV1.02B3,2013-02-19 07:10:00,
2013-02-19 01:15:00,47.0,40.2,30.05,North,355,13.0,13.0,77,0.00,,,0.00,WeatherCatV1.02B3,2013-02-19 07:15:00,
2013-02-19 01:20:00,46.9,40.4,30.05,North,349,11.0,14.0,78,0.00,,,0.00,WeatherCatV1.02B3,2013-02-19 07:20:00,
2013-02-19 01:25:00,46.7,40.2,30.05,North,355,11.0,12.0,78,0.00,,,0.00,WeatherCatV1.02B3,2013-02-19 07:25:00,
2013-02-19 01:30:00,46.5,40.0,30.05,NNW,346,11.0,11.0,78,0.00,,,0.00,WeatherCatV1.02B3,2013-02-19 07:30:00,
2013-02-19 01:35:00,46.5,40.3,30.05,NNW,346,8.0,9.0,79,0.00,,,0.00,WeatherCatV1.02B3,2013-02-19 07:35:00,
2013-02-19 01:40:00,46.1,40.0,30.05,NNW,344,8.0,12.0,79,0.00,,,0.00,WeatherCatV1.02B3,2013-02-19 07:40:00,
2013-02-19 01:45:00,46.0,39.9,30.05,North,350,11.0,12.0,79,0.00,,,0.00,WeatherCatV1.02B3,2013-02-19 07:45:00,
2013-02-19 01:50:00,45.8,40.0,30.05,North,355,11.0,11.0,80,0.00,,,0.00,WeatherCatV1.02B3,2013-02-19 07:50:00,
2013-02-19 01:55:00,45.8,39.7,30.05,NNW,346,10.0,14.0,79,0.00,,,0.00,WeatherCatV1.02B3,2013-02-19 07:55:00,
2013-02-19 02:00:00,45.8,39.7,30.05,North,355,10.0,11.0,79,0.00,,,0.00,WeatherCatV1.02B3,2013-02-19 08:00:00,
2013-02-19 02:05:00,45.7,39.6,30.05,NNW,348,8.0,14.0,79,0.00,,,0.00,WeatherCatV1.02B3,2013-02-19 08:05:00,
2013-02-19 02:10:00,45.5,39.4,30.05,NNW,348,10.0,12.0,79,0.00,,,0.00,WeatherCatV1.02B3,2013-02-19 08:10:00,
2013-02-19 02:15:00,45.4,39.6,30.05,North,355,8.0,10.0,80,0.00,,,0.00,WeatherCatV1.02B3,2013-02-19 08:15:00,
2013-02-19 02:20:00,45.4,39.6,30.06,North,355,11.0,14.0,80,0.00,,,0.00,WeatherCatV1.02B3,2013-02-19 08:20:00,
2013-02-19 02:25:00,45.4,39.6,30.06,NNW,347,6.0,10.0,80,0.00,,,0.00,WeatherCatV1.02B3,2013-02-19 08:25:00,
2013-02-19 02:30:00,45.2,39.4,30.06,NNW,348,8.0,10.0,80,0.00,,,0.00,WeatherCatV1.02B3,2013-02-19 08:30:00,
2013-02-19 02:35:00,45.1,39.3,30.07,NNW,348,8.0,12.0,80,0.00,,,0.00,WeatherCatV1.02B3,2013-02-19 08:35:00,
2013-02-19 02:40:00,45.0,39.2,30.07,NNW,342,8.0,12.0,80,0.00,,,0.00,WeatherCatV1.02B3,2013-02-19 08:40:00,
2013-02-19 02:45:00,44.8,39.3,30.07,NNW,348,6.0,10.0,81,0.00,,,0.00,WeatherCatV1.02B3,2013-02-19 08:45:00,
2013-02-19 02:50:00,44.6,39.5,30.08,North,355,10.0,11.0,82,0.00,,,0.00,WeatherCatV1.02B3,2013-02-19 08:50:00,
2013-02-19 02:55:00,44.7,39.5,30.08,North,350,7.0,10.0,82,0.00,,,0.00,WeatherCatV1.02B3,2013-02-19 08:55:00,
2013-02-19 03:00:00,44.5,39.4,30.08,NNW,340,11.0,11.0,82,0.00,,,0.00,WeatherCatV1.02B3,2013-02-19 09:00:00,
2013-02-19 03:05:00,44.5,39.0,30.08,NNW,340,10.0,12.0,81,0.00,,,0.00,WeatherCatV1.02B3,2013-02-19 09:05:00,
2013-02-19 03:10:00,44.5,39.0,30.08,North,349,11.0,12.0,81,0.00,,,0.00,WeatherCatV1.02B3,2013-02-19 09:10:00,
2013-02-19 03:15:00,44.5,39.0,30.08,NNW,339,9.0,14.0,81,0.00,,,0.00,WeatherCatV1.02B3,2013-02-19 09:15:00,
2013-02-19 03:20:00,44.4,38.9,30.09,NNW,343,9.0,14.0,81,0.00,,,0.00,WeatherCatV1.02B3,2013-02-19 09:20:00,
2013-02-19 03:25:00,44.2,39.1,30.09,NNW,343,10.0,14.0,82,0.00,,,0.00,WeatherCatV1.02B3,2013-02-19 09:25:00,
2013-02-19 03:30:00,44.1,39.0,30.09,NNW,346,13.0,13.0,82,0.00,,,0.00,WeatherCatV1.02B3,2013-02-19 09:30:00,
2013-02-19 03:35:00,43.9,39.1,30.09,NNW,333,8.0,13.0,83,0.00,,,0.00,WeatherCatV1.02B3,2013-02-19 09:35:00,
2013-02-19 03:40:00,43.6,38.8,30.09,NW,326,14.0,14.0,83,0.00,,,0.00,WeatherCatV1.02B3,2013-02-19 09:40:00,
2013-02-19 03:45:00,43.5,38.7,30.10,NW,326,10.0,11.0,83,0.00,,,0.00,WeatherCatV1.02B3,2013-02-19 09:45:00,
2013-02-19 03:50:00,43.4,38.6,30.10,NNW,339,11.0,14.0,83,0.00,,,0.00,WeatherCatV1.02B3,2013-02-19 09:50:00,
2013-02-19 03:55:00,43.4,38.3,30.10,NNW,334,11.0,14.0,82,0.00,,,0.00,WeatherCatV1.02B3,2013-02-19 09:55:00,
2013-02-19 04:00:00,43.4,38.3,30.10,NNW,329,15.0,16.0,82,0.00,,,0.00,WeatherCatV1.02B3,2013-02-19 10:00:00,
2013-02-19 04:05:00,43.3,38.2,30.11,NNW,342,11.0,11.0,82,0.00,,,0.00,WeatherCatV1.02B3,2013-02-19 10:05:00,
2013-02-19 04:10:00,43.0,37.9,30.11,NNW,342,10.0,13.0,82,0.00,,,0.00,WeatherCatV1.02B3,2013-02-19 10:10:00,
2013-02-19 04:15:00,42.8,37.7,30.11,NNW,334,10.0,16.0,82,0.00,,,0.00,WeatherCatV1.02B3,2013-02-19 10:15:00,
2013-02-19 04:20:00,42.7,37.6,30.12,NNW,336,12.0,14.0,82,0.00,,,0.00,WeatherCatV1.02B3,2013-02-19 10:20:00,
2013-02-19 04:25:00,42.6,37.5,30.12,NNW,331,9.0,13.0,82,0.00,,,0.00,WeatherCatV1.02B3,2013-02-19 10:25:00,
2013-02-19 04:30:00,42.5,37.7,30.12,NNW,334,8.0,16.0,83,0.00,,,0.00,WeatherCatV1.02B3,2013-02-19 10:30:00,
2013-02-19 04:35:00,42.2,37.4,30.12,NNW,343,12.0,12.0,83,0.00,,,0.00,WeatherCatV1.02B3,2013-02-19 10:35:00,
2013-02-19 04:40:00,42.1,37.3,30.13,NNW,329,11.0,14.0,83,0.00,,,0.00,WeatherCatV1.02B3,2013-02-19 10:40:00,
2013-02-19 04:45:00,42.0,37.2,30.13,NNW,341,11.0,15.0,83,0.00,,,0.00,WeatherCatV1.02B3,2013-02-19 10:45:00,
2013-02-19 04:50:00,41.9,37.1,30.14,NNW,333,10.0,14.0,83,0.00,,,0.00,WeatherCatV1.02B3,2013-02-19 10:50:00,
2013-02-19 04:55:00,41.8,37.0,30.14,NNW,339,9.0,14.0,83,0.00,,,0.00,WeatherCatV1.02B3,2013-02-19 10:55:00,
2013-02-19 05:00:00,41.8,36.7,30.15,NNW,336,11.0,16.0,82,0.00,,,0.00,WeatherCatV1.02B3,2013-02-19 11:00:00,
2013-02-19 05:05:00,41.7,36.6,30.15,NNW,341,14.0,15.0,82,0.00,,,0.00,WeatherCatV1.02B3,2013-02-19 11:05:00,
2013-02-19 05:10:00,41.5,36.4,30.16,NNW,348,15.0,17.0,82,0.00,,,0.00,WeatherCatV1.02B3,2013-02-19 11:10:00,
2013-02-19 05:15:00,41.4,36.0,30.16,NNW,339,14.0,17.0,81,0.00,,,0.00,WeatherCatV1.02B3,2013-02-19 11:15:00,
2013-02-19 05:20:00,41.3,35.9,30.16,North,350,10.0,16.0,81,0.00,,,0.00,WeatherCatV1.02B3,2013-02-19 11:20:00,
2013-02-19 05:25:00,41.1,35.4,30.16,NNW,340,11.0,15.0,80,0.00,,,0.00,WeatherCatV1.02B3,2013-02-19 11:25:00,
2013-02-19 05:30:00,41.0,34.4,30.16,NNW,335,22.0,22.0,77,0.00,,,0.00,WeatherCatV1.02B3,2013-02-19 11:30:00,
2013-02-19 05:35:00,40.9,33.9,30.17,North,350,14.0,20.0,76,0.00,,,0.00,WeatherCatV1.02B3,2013-02-19 11:35:00,
2013-02-19 05:40:00,40.7,33.7,30.17,NNW,339,12.0,18.0,76,0.00,,,0.00,WeatherCatV1.02B3,2013-02-19 11:40:00,
2013-02-19 05:45:00,40.4,33.4,30.18,North,0,15.0,16.0,76,0.00,,,0.00,WeatherCatV1.02B3,2013-02-19 11:45:00,
2013-02-19 05:50:00,40.1,33.2,30.18,North,351,14.0,18.0,76,0.00,,,0.00,WeatherCatV1.02B3,2013-02-19 11:50:00,
2013-02-19 05:55:00,40.0,33.1,30.18,NNW,335,12.0,14.0,76,0.00,,,0.00,WeatherCatV1.02B3,2013-02-19 11:55:00,
2013-02-19 06:00:00,39.7,32.8,30.18,NNW,340,15.0,16.0,76,0.00,,,0.00,WeatherCatV1.02B3,2013-02-19 12:00:00,
2013-02-19 06:05:00,39.7,32.8,30.19,NNW,338,8.0,14.0,76,0.00,,,0.00,WeatherCatV1.02B3,2013-02-19 12:05:00,
2013-02-19 06:10:00,39.5,32.6,30.19,NNW,328,9.0,13.0,76,0.00,,,0.00,WeatherCatV1.02B3,2013-02-19 12:10:00,
2013-02-19 06:15:00,39.3,32.4,30.19,NNW,344,11.0,12.0,76,0.00,,,0.00,WeatherCatV1.02B3,2013-02-19 12:15:00,
2013-02-19 06:20:00,39.3,32.0,30.20,NNW,346,9.0,13.0,75,0.00,,,0.00,WeatherCatV1.02B3,2013-02-19 12:20:00,
2013-02-19 06:25:00,39.2,32.0,30.20,North,0,10.0,12.0,75,0.00,,,0.00,WeatherCatV1.02B3,2013-02-19 12:25:00,
2013-02-19 06:30:00,39.1,32.2,30.20,North,355,10.0,13.0,76,0.00,,,0.00,WeatherCatV1.02B3,2013-02-19 12:30:00,
2013-02-19 06:35:00,38.9,32.0,30.20,North,350,7.0,9.0,76,0.00,,,0.00,WeatherCatV1.02B3,2013-02-19 12:35:00,
2013-02-19 06:40:00,38.7,32.1,30.21,North,0,9.0,11.0,77,0.00,,,0.00,WeatherCatV1.02B3,2013-02-19 12:40:00,
2013-02-19 06:45:00,38.6,32.0,30.21,North,355,8.0,10.0,77,0.00,,,0.00,WeatherCatV1.02B3,2013-02-19 12:45:00,
2013-02-19 06:50:00,38.4,32.2,30.21,North,350,6.0,9.0,78,0.00,,,0.00,WeatherCatV1.02B3,2013-02-19 12:50:00,
2013-02-19 06:55:00,38.3,32.1,30.21,North,355,5.0,9.0,78,0.00,,,0.00,WeatherCatV1.02B3,2013-02-19 12:55:00,
2013-02-19 07:00:00,38.2,32.3,30.22,North,355,6.0,8.0,79,0.00,,,0.00,WeatherCatV1.02B3,2013-02-19 13:00:00,
2013-02-19 07:05:00,38.3,32.4,30.22,North,355,6.0,7.0,79,0.00,,,0.00,WeatherCatV1.02B3,2013-02-19 13:05:00,
2013-02-19 07:10:00,38.3,32.4,30.22,NNW,338,5.0,7.0,79,0.00,,,0.00,WeatherCatV1.02B3,2013-02-19 13:10:00,
2013-02-19 07:15:00,38.2,32.6,30.22,NNW,347,6.0,7.0,80,0.00,,,0.00,WeatherCatV1.02B3,2013-02-19 13:15:00,
2013-02-19 07:20:00,38.3,32.7,30.22,North,355,6.0,8.0,80,0.00,,,0.00,WeatherCatV1.02B3,2013-02-19 13:20:00,
2013-02-19 07:25:00,38.5,32.9,30.22,North,0,6.0,7.0,80,0.00,,,0.00,WeatherCatV1.02B3,2013-02-19 13:25:00,
2013-02-19 07:30:00,38.7,33.1,30.22,North,355,5.0,7.0,80,0.00,,,0.00,WeatherCatV1.02B3,2013-02-19 13:30:00,
2013-02-19 07:35:00,38.9,33.0,30.23,NNW,346,8.0,9.0,79,0.00,,,0.00,WeatherCatV1.02B3,2013-02-19 13:35:00,
2013-02-19 07:40:00,39.0,33.0,30.23,NNW,348,7.0,9.0,79,0.00,,,0.00,WeatherCatV1.02B3,2013-02-19 13:40:00,
2013-02-19 07:45:00,39.2,33.2,30.24,North,350,8.0,9.0,79,0.00,,,0.00,WeatherCatV1.02B3,2013-02-19 13:45:00,
2013-02-19 07:50:00,39.3,33.3,30.24,North,355,8.0,8.0,79,0.00,,,0.00,WeatherCatV1.02B3,2013-02-19 13:50:00,
2013-02-19 07:55:00,39.4,33.4,30.25,NNW,334,5.0,8.0,79,0.00,,,0.00,WeatherCatV1.02B3,2013-02-19 13:55:00,
2013-02-19 08:00:00,39.5,33.2,30.25,NNW,342,7.0,10.0,78,0.00,,,0.00,WeatherCatV1.02B3,2013-02-19 14:00:00,
2013-02-19 08:05:00,39.7,33.4,30.25,North,355,8.0,12.0,78,0.00,,,0.00,WeatherCatV1.02B3,2013-02-19 14:05:00,
2013-02-19 08:10:00,39.8,33.8,30.26,North,0,8.0,8.0,79,0.00,,,0.00,WeatherCatV1.02B3,2013-02-19 14:10:00,
2013-02-19 08:15:00,40.0,33.7,30.26,North,355,7.0,9.0,78,0.00,,,0.00,WeatherCatV1.02B3,2013-02-19 14:15:00,
2013-02-19 08:20:00,40.1,33.8,30.26,NNW,327,9.0,9.0,78,0.00,,,0.00,WeatherCatV1.02B3,2013-02-19 14:20:00,
2013-02-19 08:25:00,40.3,34.3,30.26,NNW,342,9.0,14.0,79,0.00,,,0.00,WeatherCatV1.02B3,2013-02-19 14:25:00,
2013-02-19 08:30:00,40.4,34.1,30.26,NNW,338,9.0,12.0,78,0.00,,,0.00,WeatherCatV1.02B3,2013-02-19 14:30:00,
2013-02-19 08:35:00,40.6,34.6,30.27,NW,322,9.0,12.0,79,0.00,,,0.00,WeatherCatV1.02B3,2013-02-19 14:35:00,
2013-02-19 08:40:00,40.7,33.4,30.27,NW,325,11.0,13.0,75,0.00,,,0.00,WeatherCatV1.02B3,2013-02-19 14:40:00,
2013-02-19 08:45:00,40.7,33.4,30.28,NNW,334,12.0,14.0,75,0.00,,,0.00,WeatherCatV1.02B3,2013-02-19 14:45:00,
2013-02-19 08:50:00,41.0,33.0,30.28,NNW,335,10.0,13.0,73,0.00,,,0.00,WeatherCatV1.02B3,2013-02-19 14:50:00,
2013-02-19 08:55:00,41.1,32.8,30.28,North,0,13.0,14.0,72,0.00,,,0.00,WeatherCatV1.02B3,2013-02-19 14:55:00,
2013-02-19 09:00:00,41.1,31.4,30.28,NNW,327,11.0,16.0,68,0.00,,,0.00,WeatherCatV1.02B3,2013-02-19 15:00:00,
2013-02-19 09:05:00,41.0,31.3,30.28,NNE,18,13.0,13.0,68,0.00,,,0.00,WeatherCatV1.02B3,2013-02-19 15:05:00,
2013-02-19 09:10:00,41.3,31.5,30.28,North,355,11.0,15.0,68,0.00,,,0.00,WeatherCatV1.02B3,2013-02-19 15:10:00,
2013-02-19 09:15:00,41.2,31.8,30.28,North,349,6.0,13.0,69,0.00,,,0.00,WeatherCatV1.02B3,2013-02-19 15:15:00,
2013-02-19 09:20:00,41.3,32.6,30.28,North,355,10.0,15.0,71,0.00,,,0.00,WeatherCatV1.02B3,2013-02-19 15:20:00,
2013-02-19 09:25:00,41.6,33.6,30.28,NNW,330,10.0,10.0,73,0.00,,,0.00,WeatherCatV1.02B3,2013-02-19 15:25:00,
2013-02-19 09:30:00,41.8,33.1,30.28,NNW,338,11.0,14.0,71,0.00,,,0.00,WeatherCatV1.02B3,2013-02-19 15:30:00,
2013-02-19 09:35:00,42.2,33.5,30.29,NNW,346,10.0,12.0,71,0.00,,,0.00,WeatherCatV1.02B3,2013-02-19 15:35:00,
2013-02-19 09:40:00,42.2,31.7,30.29,North,350,11.0,15.0,66,0.00,,,0.00,WeatherCatV1.02B3,2013-02-19 15:40:00,
2013-02-19 09:45:00,42.3,32.1,30.29,NNW,342,11.0,15.0,67,0.00,,,0.00,WeatherCatV1.02B3,2013-02-19 15:45:00,
2013-02-19 09:50:00,42.3,32.5,30.29,NNE,12,10.0,12.0,68,0.00,,,0.00,WeatherCatV1.02B3,2013-02-19 15:50:00,
2013-02-19 09:55:00,42.3,31.4,30.29,NNW,333,11.0,16.0,65,0.00,,,0.00,WeatherCatV1.02B3,2013-02-19 15:55:00,
2013-02-19 10:00:00,42.5,32.0,30.29,North,350,11.0,13.0,66,0.00,,,0.00,WeatherCatV1.02B3,2013-02-19 16:00:00,
2013-02-19 10:05:00,42.4,31.9,30.29,North,349,7.0,8.0,66,0.00,,,0.00,WeatherCatV1.02B3,2013-02-19 16:05:00,
2013-02-19 10:10:00,42.5,32.0,30.30,North,5,9.0,10.0,66,0.00,,,0.00,WeatherCatV1.02B3,2013-02-19 16:10:00,
2013-02-19 10:15:00,43.1,33.6,30.30,NNW,333,7.0,9.0,69,0.00,,,0.00,WeatherCatV1.02B3,2013-02-19 16:15:00,
2013-02-19 10:20:00,43.1,33.3,30.30,NNW,329,7.0,11.0,68,0.00,,,0.00,WeatherCatV1.02B3,2013-02-19 16:20:00,
2013-02-19 10:25:00,43.1,32.5,30.30,NNW,330,11.0,11.0,66,0.00,,,0.00,WeatherCatV1.02B3,2013-02-19 16:25:00,
2013-02-19 10:30:00,43.1,31.4,30.31,NNW,336,7.0,12.0,63,0.00,,,0.00,WeatherCatV1.02B3,2013-02-19 16:30:00,
2013-02-19 10:35:00,43.3,32.0,30.30,NNW,347,11.0,13.0,64,0.00,,,0.00,WeatherCatV1.02B3,2013-02-19 16:35:00,
2013-02-19 10:40:00,43.6,33.4,30.30,NNW,344,8.0,8.0,67,0.00,,,0.00,WeatherCatV1.02B3,2013-02-19 16:40:00,
2013-02-19 10:45:00,43.7,32.3,30.31,NW,325,7.0,12.0,64,0.00,,,0.00,WeatherCatV1.02B3,2013-02-19 16:45:00,
2013-02-19 10:50:00,43.9,31.3,30.31,North,5,9.0,14.0,61,0.00,,,0.00,WeatherCatV1.02B3,2013-02-19 16:50:00,
2013-02-19 10:55:00,44.1,34.2,30.31,North,0,8.0,11.0,68,0.00,,,0.00,WeatherCatV1.02B3,2013-02-19 16:55:00,
2013-02-19 11:00:00,44.2,33.2,30.31,NNW,345,11.0,14.0,65,0.00,,,0.00,WeatherCatV1.02B3,2013-02-19 17:00:00,
2013-02-19 11:05:00,43.9,32.5,30.31,NNW,338,12.0,14.0,64,0.00,,,0.00,WeatherCatV1.02B3,2013-02-19 17:05:00,
2013-02-19 11:10:00,43.8,30.8,30.31,NW,317,10.0,14.0,60,0.00,,,0.00,WeatherCatV1.02B3,2013-02-19 17:10:00,
2013-02-19 11:15:00,44.1,32.7,30.31,NW,326,8.0,12.0,64,0.00,,,0.00,WeatherCatV1.02B3,2013-02-19 17:15:00,
2013-02-19 11:20:00,44.3,34.0,30.31,NW,320,9.0,12.0,67,0.00,,,0.00,WeatherCatV1.02B3,2013-02-19 17:20:00,
2013-02-19 11:25:00,44.3,32.5,30.31,NW,325,6.0,10.0,63,0.00,,,0.00,WeatherCatV1.02B3,2013-02-19 17:25:00,
2013-02-19 11:30:00,44.6,33.2,30.31,NW,317,14.0,14.0,64,0.00,,,0.00,WeatherCatV1.02B3,2013-02-19 17:30:00,
2013-02-19 11:35:00,44.6,31.2,30.31,NNW,331,7.0,12.0,59,0.00,,,0.00,WeatherCatV1.02B3,2013-02-19 17:35:00,
2013-02-19 11:40:00,44.9,33.1,30.32,NW,312,11.0,16.0,63,0.00,,,0.00,WeatherCatV1.02B3,2013-02-19 17:40:00,
2013-02-19 11:45:00,45.1,33.7,30.31,NW,306,8.0,12.0,64,0.00,,,0.00,WeatherCatV1.02B3,2013-02-19 17:45:00,
2013-02-19 11:50:00,45.4,33.6,30.31,NNW,348,10.0,12.0,63,0.00,,,0.00,WeatherCatV1.02B3,2013-02-19 17:50:00,
2013-02-19 11:55:00,45.8,33.5,30.31,NNW,337,12.0,14.0,62,0.00,,,0.00,WeatherCatV1.02B3,2013-02-19 17:55:00,
2013-02-19 12:00:00,45.6,32.5,30.31,NW,313,9.0,13.0,60,0.00,,,0.00,WeatherCatV1.02B3,2013-02-19 18:00:00,
2013-02-19 12:05:00,45.9,35.2,30.31,NW,317,9.0,11.0,66,0.00,,,0.00,WeatherCatV1.02B3,2013-02-19 18:05:00,
2013-02-19 12:10:00,46.4,36.0,30.31,North,350,11.0,15.0,67,0.00,,,0.00,WeatherCatV1.02B3,2013-02-19 18:10:00,
2013-02-19 12:15:00,46.6,35.5,30.31,NW,314,10.0,12.0,65,0.00,,,0.00,WeatherCatV1.02B3,2013-02-19 18:15:00,
2013-02-19 12:20:00,46.4,34.9,30.31,NW,325,9.0,11.0,64,0.00,,,0.00,WeatherCatV1.02B3,2013-02-19 18:20:00,
2013-02-19 12:25:00,46.1,33.0,30.31,NW,325,6.0,6.0,60,0.00,,,0.00,WeatherCatV1.02B3,2013-02-19 18:25:00,
2013-02-19 12:30:00,46.2,33.9,30.31,NNW,334,8.0,13.0,62,0.00,,,0.00,WeatherCatV1.02B3,2013-02-19 18:30:00,
2013-02-19 12:35:00,46.6,35.5,30.30,NNW,347,10.0,14.0,65,0.00,,,0.00,WeatherCatV1.02B3,2013-02-19 18:35:00,
2013-02-19 12:40:00,46.8,35.7,30.30,NNW,331,10.0,11.0,65,0.00,,,0.00,WeatherCatV1.02B3,2013-02-19 18:40:00,
2013-02-19 12:45:00,46.9,34.2,30.30,NNW,331,11.0,15.0,61,0.00,,,0.00,WeatherCatV1.02B3,2013-02-19 18:45:00,
2013-02-19 12:50:00,47.0,34.7,30.30,NNW,344,9.0,12.0,62,0.00,,,0.00,WeatherCatV1.02B3,2013-02-19 18:50:00,
2013-02-19 12:55:00,47.2,34.9,30.29,NNW,335,12.0,13.0,62,0.00,,,0.00,WeatherCatV1.02B3,2013-02-19 18:55:00,
2013-02-19 13:00:00,47.4,33.8,30.29,NNW,332,12.0,16.0,59,0.00,,,0.00,WeatherCatV1.02B3,2013-02-19 19:00:00,
2013-02-19 13:05:00,47.8,35.0,30.29,NW,324,8.0,12.0,61,0.00,,,0.00,WeatherCatV1.02B3,2013-02-19 19:05:00,
2013-02-19 13:10:00,47.8,35.0,30.29,NNW,333,10.0,14.0,61,0.00,,,0.00,WeatherCatV1.02B3,2013-02-19 19:10:00,
2013-02-19 13:15:00,47.8,33.7,30.29,NNW,331,12.0,13.0,58,0.00,,,0.00,WeatherCatV1.02B3,2013-02-19 19:15:00,
2013-02-19 13:20:00,47.9,33.0,30.28,NNW,335,8.0,12.0,56,0.00,,,0.00,WeatherCatV1.02B3,2013-02-19 19:20:00,
2013-02-19 13:25:00,48.3,34.6,30.28,NW,305,9.0,11.0,59,0.00,,,0.00,WeatherCatV1.02B3,2013-02-19 19:25:00,
2013-02-19 13:30:00,48.3,34.6,30.28,North,355,9.0,11.0,59,0.00,,,0.00,WeatherCatV1.02B3,2013-02-19 19:30:00,
2013-02-19 13:35:00,48.4,34.3,30.28,North,355,7.0,10.0,58,0.00,,,0.00,WeatherCatV1.02B3,2013-02-19 19:35:00,
2013-02-19 13:40:00,48.9,35.2,30.28,NW,320,7.0,11.0,59,0.00,,,0.00,WeatherCatV1.02B3,2013-02-19 19:40:00,
2013-02-19 13:45:00,49.0,35.3,30.28,NNW,331,7.0,14.0,59,0.00,,,0.00,WeatherCatV1.02B3,2013-02-19 19:45:00,
2013-02-19 13:50:00,49.3,34.7,30.28,North,355,13.0,15.0,57,0.00,,,0.00,WeatherCatV1.02B3,2013-02-19 19:50:00,
2013-02-19 13:55:00,49.4,35.2,30.28,NNW,337,10.0,13.0,58,0.00,,,0.00,WeatherCatV1.02B3,2013-02-19 19:55:00,
2013-02-19 14:00:00,49.5,34.9,30.28,NW,325,13.0,17.0,57,0.00,,,0.00,WeatherCatV1.02B3,2013-02-19 20:00:00,
2013-02-19 14:05:00,49.3,33.4,30.28,NW,304,7.0,13.0,54,0.00,,,0.00,WeatherCatV1.02B3,2013-02-19 20:05:00,
2013-02-19 14:10:00,49.7,37.2,30.28,North,355,10.0,16.0,62,0.00,,,0.00,WeatherCatV1.02B3,2013-02-19 20:10:00,
2013-02-19 14:15:00,49.6,35.0,30.28,NNW,336,13.0,14.0,57,0.00,,,0.00,WeatherCatV1.02B3,2013-02-19 20:15:00,
2013-02-19 14:20:00,49.7,34.2,30.28,NW,316,9.0,13.0,55,0.00,,,0.00,WeatherCatV1.02B3,2013-02-19 20:20:00,
2013-02-19 14:25:00,50.0,35.4,30.28,NW,326,11.0,13.0,57,0.00,,,0.00,WeatherCatV1.02B3,2013-02-19 20:25:00,
2013-02-19 14:30:00,50.0,34.5,30.28,North,350,10.0,11.0,55,0.00,,,0.00,WeatherCatV1.02B3,2013-02-19 20:30:00,
2013-02-19 14:35:00,50.3,37.0,30.28,NW,324,11.0,13.0,60,0.00,,,0.00,WeatherCatV1.02B3,2013-02-19 20:35:00,
2013-02-19 14:40:00,50.4,33.9,30.28,WNW,300,7.0,14.0,53,0.00,,,0.00,WeatherCatV1.02B3,2013-02-19 20:40:00,
2013-02-19 14:45:00,50.3,33.4,30.28,NW,313,6.0,9.0,52,0.00,,,0.00,WeatherCatV1.02B3,2013-02-19 20:45:00,
2013-02-19 14:50:00,50.3,33.8,30.28,NW,325,11.0,15.0,53,0.00,,,0.00,WeatherCatV1.02B3,2013-02-19 20:50:00,
2013-02-19 14:55:00,50.3,33.8,30.28,NNW,328,7.0,9.0,53,0.00,,,0.00,WeatherCatV1.02B3,2013-02-19 20:55:00,
2013-02-19 15:00:00,50.6,36.4,30.28,NNW,348,9.0,13.0,58,0.00,,,0.00,WeatherCatV1.02B3,2013-02-19 21:00:00,
2013-02-19 15:05:00,50.6,33.1,30.28,NNW,342,9.0,10.0,51,0.00,,,0.00,WeatherCatV1.02B3,2013-02-19 21:05:00,
2013-02-19 15:10:00,50.7,35.1,30.28,NW,323,8.0,14.0,55,0.00,,,0.00,WeatherCatV1.02B3,2013-02-19 21:10:00,
2013-02-19 15:15:00,50.9,37.1,30.28,NNW,343,8.0,13.0,59,0.00,,,0.00,WeatherCatV1.02B3,2013-02-19 21:15:00,
2013-02-19 15:20:00,51.1,36.0,30.28,North,350,6.0,11.0,56,0.00,,,0.00,WeatherCatV1.02B3,2013-02-19 21:20:00,
2013-02-19 15:25:00,51.0,35.4,30.28,NNW,338,7.0,9.0,55,0.00,,,0.00,WeatherCatV1.02B3,2013-02-19 21:25:00,
2013-02-19 15:30:00,50.7,33.2,30.28,North,349,5.0,9.0,51,0.00,,,0.00,WeatherCatV1.02B3,2013-02-19 21:30:00,
2013-02-19 15:35:00,50.8,34.3,30.28,NW,318,8.0,11.0,53,0.00,,,0.00,WeatherCatV1.02B3,2013-02-19 21:35:00,
2013-02-19 15:40:00,50.8,35.2,30.28,WNW,303,11.0,12.0,55,0.00,,,0.00,WeatherCatV1.02B3,2013-02-19 21:40:00,
2013-02-19 15:45:00,50.8,34.8,30.28,WNW,292,7.0,12.0,54,0.00,,,0.00,WeatherCatV1.02B3,2013-02-19 21:45:00,
2013-02-19 15:50:00,50.9,35.8,30.28,WNW,298,7.0,13.0,56,0.00,,,0.00,WeatherCatV1.02B3,2013-02-19 21:50:00,
2013-02-19 15:55:00,50.9,33.9,30.28,NW,314,6.0,10.0,52,0.00,,,0.00,WeatherCatV1.02B3,2013-02-19 21:55:00,
2013-02-19 16:00:00,50.9,35.3,30.28,NW,317,5.0,7.0,55,0.00,,,0.00,WeatherCatV1.02B3,2013-02-19 22:00:00,
2013-02-19 16:05:00,50.8,33.8,30.28,NNW,329,9.0,9.0,52,0.00,,,0.00,WeatherCatV1.02B3,2013-02-19 22:05:00,
2013-02-19 16:10:00,50.9,34.4,30.28,NW,304,9.0,9.0,53,0.00,,,0.00,WeatherCatV1.02B3,2013-02-19 22:10:00,
2013-02-19 16:15:00,50.9,33.4,30.28,NW,319,7.0,11.0,51,0.00,,,0.00,WeatherCatV1.02B3,2013-02-19 22:15:00,
2013-02-19 16:20:00,51.0,34.0,30.28,NW,305,5.0,11.0,52,0.00,,,0.00,WeatherCatV1.02B3,2013-02-19 22:20:00,
2013-02-19 16:25:00,51.0,34.0,30.27,NW,321,8.0,10.0,52,0.00,,,0.00,WeatherCatV1.02B3,2013-02-19 22:25:00,
2013-02-19 16:30:00,50.8,34.3,30.27,NNW,328,8.0,10.0,53,0.00,,,0.00,WeatherCatV1.02B3,2013-02-19 22:30:00,
2013-02-19 16:35:00,50.6,33.1,30.27,NW,305,10.0,11.0,51,0.00,,,0.00,WeatherCatV1.02B3,2013-02-19 22:35:00,
2013-02-19 16:40:00,50.5,34.0,30.27,North,355,10.0,10.0,53,0.00,,,0.00,WeatherCatV1.02B3,2013-02-19 22:40:00,
2013-02-19 16:45:00,50.5,34.0,30.27,NW,319,4.0,10.0,53,0.00,,,0.00,WeatherCatV1.02B3,2013-02-19 22:45:00,
2013-02-19 16:50:00,50.4,33.4,30.27,NNW,331,7.0,11.0,52,0.00,,,0.00,WeatherCatV1.02B3,2013-02-19 22:50:00,
2013-02-19 16:55:00,50.2,32.8,30.27,North,350,6.0,9.0,51,0.00,,,0.00,WeatherCatV1.02B3,2013-02-19 22:55:00,
2013-02-19 17:00:00,50.0,31.6,30.26,NNW,344,6.0,8.0,49,0.00,,,0.00,WeatherCatV1.02B3,2013-02-19 23:00:00,
2013-02-19 17:05:00,50.0,33.1,30.26,NW,323,7.0,9.0,52,0.00,,,0.00,WeatherCatV1.02B3,2013-02-19 23:05:00,
2013-02-19 17:10:00,49.9,33.5,30.27,NNW,335,5.0,6.0,53,0.00,,,0.00,WeatherCatV1.02B3,2013-02-19 23:10:00,
2013-02-19 17:15:00,49.7,33.7,30.26,NW,305,8.0,9.0,54,0.00,,,0.00,WeatherCatV1.02B3,2013-02-19 23:15:00,
2013-02-19 17:20:00,49.4,32.0,30.26,NNW,340,7.0,9.0,51,0.00,,,0.00,WeatherCatV1.02B3,2013-02-19 23:20:00,
2013-02-19 17:25:00,49.1,30.8,30.26,NNW,333,7.0,10.0,49,0.00,,,0.00,WeatherCatV1.02B3,2013-02-19 23:25:00,
2013-02-19 17:31:00,48.9,33.0,30.26,NNW,342,4.0,6.0,54,0.00,,,0.00,WeatherCatV1.02B3,2013-02-19 23:31:00,
2013-02-19 17:36:00,48.6,32.7,30.26,NNW,342,4.0,5.0,54,0.00,,,0.00,WeatherCatV1.02B3,2013-02-19 23:36:00,
2013-02-19 17:41:00,48.3,33.3,30.26,NNW,339,3.0,4.0,56,0.00,,,0.00,WeatherCatV1.02B3,2013-02-19 23:41:00,
2013-02-19 17:46:00,48.1,34.0,30.27,NNW,338,3.0,3.0,58,0.00,,,0.00,WeatherCatV1.02B3,2013-02-19 23:46:00,
2013-02-19 17:51:00,47.7,34.5,30.27,NNW,328,2.0,4.0,60,0.00,,,0.00,WeatherCatV1.02B3,2013-02-19 23:51:00,
2013-02-19 17:56:00,47.4,34.6,30.27,NW,314,3.0,3.0,61,0.00,,,0.00,WeatherCatV1.02B3,2013-02-19 23:56:00,
2013-02-19 18:01:00,47.1,34.4,30.27,NW,314,2.0,2.0,61,0.00,,,0.00,WeatherCatV1.02B3,2013-02-20 00:01:00,
2013-02-19 18:06:00,46.9,34.6,30.27,NW,314,1.0,2.0,62,0.00,,,0.00,WeatherCatV1.02B3,2013-02-20 00:06:00,
2013-02-19 18:11:00,46.7,35.2,30.27,NW,314,1.0,2.0,64,0.00,,,0.00,WeatherCatV1.02B3,2013-02-20 00:11:00,
2013-02-19 18:16:00,46.3,36.0,30.27,NW,314,0.0,0.0,67,0.00,,,0.00,WeatherCatV1.02B3,2013-02-20 00:16:00,
2013-02-19 18:21:00,46.0,36.4,30.27,NW,314,0.0,0.0,69,0.00,,,0.00,WeatherCatV1.02B3,2013-02-20 00:21:00,
2013-02-19 18:26:00,45.8,35.5,30.27,NW,314,0.0,0.0,67,0.00,,,0.00,WeatherCatV1.02B3,2013-02-20 00:26:00,
2013-02-19 18:31:00,45.5,35.6,30.27,NW,314,0.0,0.0,68,0.00,,,0.00,WeatherCatV1.02B3,2013-02-20 00:31:00,
2013-02-19 18:36:00,45.3,35.7,30.27,NW,314,0.0,0.0,69,0.00,,,0.00,WeatherCatV1.02B3,2013-02-20 00:36:00,
2013-02-19 18:41:00,45.1,34.4,30.28,NW,314,0.0,0.0,66,0.00,,,0.00,WeatherCatV1.02B3,2013-02-20 00:41:00,
2013-02-19 18:46:00,44.9,35.7,30.28,NW,314,2.0,3.0,70,0.00,,,0.00,WeatherCatV1.02B3,2013-02-20 00:46:00,
2013-02-19 18:51:00,44.5,36.4,30.28,NW,314,0.0,1.0,73,0.00,,,0.00,WeatherCatV1.02B3,2013-02-20 00:51:00,
2013-02-19 18:56:00,44.4,34.1,30.28,NW,314,0.0,2.0,67,0.00,,,0.00,WeatherCatV1.02B3,2013-02-20 00:56:00,
2013-02-19 19:01:00,44.6,32.4,30.28,NW,314,0.0,2.0,62,0.00,,,0.00,WeatherCatV1.02B3,2013-02-20 01:01:00,
2013-02-19 19:06:00,44.7,33.3,30.27,NW,314,0.0,0.0,64,0.00,,,0.00,WeatherCatV1.02B3,2013-02-20 01:06:00,
2013-02-19 19:11:00,44.6,34.3,30.27,NW,314,0.0,0.0,67,0.00,,,0.00,WeatherCatV1.02B3,2013-02-20 01:11:00,
2013-02-19 19:16:00,44.3,33.3,30.28,NW,314,0.0,0.0,65,0.00,,,0.00,WeatherCatV1.02B3,2013-02-20 01:16:00,
2013-02-19 19:21:00,44.0,32.6,30.28,NW,314,0.0,0.0,64,0.00,,,0.00,WeatherCatV1.02B3,2013-02-20 01:21:00,
2013-02-19 19:26:00,43.6,32.6,30.28,NW,314,0.0,0.0,65,0.00,,,0.00,WeatherCatV1.02B3,2013-02-20 01:26:00,
2013-02-19 19:31:00,43.6,34.8,30.28,NW,314,0.0,0.0,71,0.00,,,0.00,WeatherCatV1.02B3,2013-02-20 01:31:00,
2013-02-19 19:36:00,43.4,33.6,30.28,NW,314,0.0,0.0,68,0.00,,,0.00,WeatherCatV1.02B3,2013-02-20 01:36:00,
2013-02-19 19:41:00,43.5,35.4,30.29,NW,314,0.0,0.0,73,0.00,,,0.00,WeatherCatV1.02B3,2013-02-20 01:41:00,
2013-02-19 19:46:00,43.4,35.0,30.29,NW,314,0.0,0.0,72,0.00,,,0.00,WeatherCatV1.02B3,2013-02-20 01:46:00,
2013-02-19 19:51:00,43.3,34.9,30.28,NW,314,0.0,0.0,72,0.00,,,0.00,WeatherCatV1.02B3,2013-02-20 01:51:00,
2013-02-19 19:56:00,43.1,35.0,30.28,NW,314,0.0,0.0,73,0.00,,,0.00,WeatherCatV1.02B3,2013-02-20 01:56:00,
2013-02-19 20:01:00,42.9,35.2,30.28,NW,314,0.0,0.0,74,0.00,,,0.00,WeatherCatV1.02B3,2013-02-20 02:01:00,
2013-02-19 20:06:00,42.5,34.8,30.28,NW,314,0.0,0.0,74,0.00,,,0.00,WeatherCatV1.02B3,2013-02-20 02:06:00,
2013-02-19 20:11:00,42.1,34.8,30.28,NW,314,0.0,0.0,75,0.00,,,0.00,WeatherCatV1.02B3,2013-02-20 02:11:00,
2013-02-19 20:16:00,41.6,33.9,30.28,NW,314,0.0,0.0,74,0.00,,,0.00,WeatherCatV1.02B3,2013-02-20 02:16:00,
2013-02-19 20:21:00,41.4,33.7,30.28,NW,314,0.0,0.0,74,0.00,,,0.00,WeatherCatV1.02B3,2013-02-20 02:21:00,
2013-02-19 20:26:00,41.0,33.7,30.28,NW,314,0.0,0.0,75,0.00,,,0.00,WeatherCatV1.02B3,2013-02-20 02:26:00,
2013-02-19 20:31:00,40.7,34.1,30.28,NW,314,0.0,0.0,77,0.00,,,0.00,WeatherCatV1.02B3,2013-02-20 02:31:00,
2013-02-19 20:36:00,40.4,34.7,30.28,NW,314,0.0,0.0,80,0.00,,,0.00,WeatherCatV1.02B3,2013-02-20 02:36:00,
2013-02-19 20:41:00,40.2,35.2,30.28,NW,314,0.0,0.0,82,0.00,,,0.00,WeatherCatV1.02B3,2013-02-20 02:41:00,
2013-02-19 20:46:00,39.8,35.1,30.28,NW,314,0.0,0.0,83,0.00,,,0.00,WeatherCatV1.02B3,2013-02-20 02:46:00,
2013-02-19 20:51:00,39.6,33.6,30.29,NW,314,0.0,1.0,79,0.00,,,0.00,WeatherCatV1.02B3,2013-02-20 02:51:00,
2013-02-19 20:56:00,39.7,33.4,30.29,NW,314,0.0,0.0,78,0.00,,,0.00,WeatherCatV1.02B3,2013-02-20 02:56:00,
2013-02-19 21:01:00,39.7,33.1,30.29,NW,314,0.0,0.0,77,0.00,,,0.00,WeatherCatV1.02B3,2013-02-20 03:01:00,
2013-02-19 21:06:00,39.6,32.7,30.29,NW,314,0.0,0.0,76,0.00,,,0.00,WeatherCatV1.02B3,2013-02-20 03:06:00,
2013-02-19 21:11:00,39.7,33.1,30.29,NW,314,0.0,0.0,77,0.00,,,0.00,WeatherCatV1.02B3,2013-02-20 03:11:00,
2013-02-19 21:16:00,39.9,33.6,30.29,NW,314,0.0,0.0,78,0.00,,,0.00,WeatherCatV1.02B3,2013-02-20 03:16:00,
2013-02-19 21:21:00,39.9,33.3,30.29,NW,314,0.0,0.0,77,0.00,,,0.00,WeatherCatV1.02B3,2013-02-20 03:21:00,
2013-02-19 21:26:00,39.9,33.6,30.29,NW,314,0.0,0.0,78,0.00,,,0.00,WeatherCatV1.02B3,2013-02-20 03:26:00,
2013-02-19 21:31:00,40.0,34.6,30.29,NW,314,0.0,0.0,81,0.00,,,0.00,WeatherCatV1.02B3,2013-02-20 03:31:00,
2013-02-19 21:36:00,39.9,34.9,30.29,NW,314,0.0,0.0,82,0.00,,,0.00,WeatherCatV1.02B3,2013-02-20 03:36:00,
2013-02-19 21:41:00,39.6,34.6,30.29,NW,314,0.0,0.0,82,0.00,,,0.00,WeatherCatV1.02B3,2013-02-20 03:41:00,
2013-02-19 21:46:00,39.4,34.1,30.29,NW,314,0.0,0.0,81,0.00,,,0.00,WeatherCatV1.02B3,2013-02-20 03:46:00,
2013-02-19 21:51:00,39.2,33.9,30.29,NW,314,0.0,0.0,81,0.00,,,0.00,WeatherCatV1.02B3,2013-02-20 03:51:00,
2013-02-19 21:56:00,38.9,33.9,30.29,NW,314,0.0,0.0,82,0.00,,,0.00,WeatherCatV1.02B3,2013-02-20 03:56:00,
2013-02-19 22:01:00,38.6,33.6,30.29,NW,314,0.0,0.0,82,0.00,,,0.00,WeatherCatV1.02B3,2013-02-20 04:01:00,
2013-02-19 22:06:00,38.4,33.4,30.29,NW,314,0.0,0.0,82,0.00,,,0.00,WeatherCatV1.02B3,2013-02-20 04:06:00,
2013-02-19 22:11:00,38.2,33.2,30.29,NW,314,0.0,0.0,82,0.00,,,0.00,WeatherCatV1.02B3,2013-02-20 04:11:00,
2013-02-19 22:16:00,38.0,33.0,30.29,NW,314,0.0,0.0,82,0.00,,,0.00,WeatherCatV1.02B3,2013-02-20 04:16:00,
2013-02-19 22:21:00,37.7,32.4,30.29,NW,314,0.0,0.0,81,0.00,,,0.00,WeatherCatV1.02B3,2013-02-20 04:21:00,
2013-02-19 22:26:00,37.4,32.4,30.29,NW,314,0.0,0.0,82,0.00,,,0.00,WeatherCatV1.02B3,2013-02-20 04:26:00,
2013-02-19 22:31:00,37.3,32.9,30.29,NW,314,0.0,0.0,84,0.00,,,0.00,WeatherCatV1.02B3,2013-02-20 04:31:00,
2013-02-19 22:36:00,37.1,33.0,30.30,NW,314,0.0,0.0,85,0.00,,,0.00,WeatherCatV1.02B3,2013-02-20 04:36:00,
2013-02-19 22:41:00,37.0,33.5,30.30,NW,314,0.0,0.0,87,0.00,,,0.00,WeatherCatV1.02B3,2013-02-20 04:41:00,
2013-02-19 22:46:00,37.0,33.8,30.29,NW,314,0.0,0.0,88,0.00,,,0.00,WeatherCatV1.02B3,2013-02-20 04:46:00,
2013-02-19 22:51:00,36.7,33.2,30.29,NW,314,0.0,0.0,87,0.00,,,0.00,WeatherCatV1.02B3,2013-02-20 04:51:00,
2013-02-19 22:56:00,36.6,33.1,30.29,NW,314,0.0,1.0,87,0.00,,,0.00,WeatherCatV1.02B3,2013-02-20 04:56:00,
2013-02-19 23:00:00,36.5,33.0,30.29,NW,314,0.0,0.0,87,0.00,,,0.00,WeatherCatV1.02B3,2013-02-20 05:00:00,
2013-02-19 23:05:00,36.4,32.9,30.29,NW,314,0.0,0.0,87,0.00,,,0.00,WeatherCatV1.02B3,2013-02-20 05:05:00,
2013-02-19 23:10:00,36.3,32.8,30.29,NW,314,0.0,0.0,87,0.00,,,0.00,WeatherCatV1.02B3,2013-02-20 05:10:00,
2013-02-19 23:15:00,36.2,33.0,30.29,NW,314,0.0,0.0,88,0.00,,,0.00,WeatherCatV1.02B3,2013-02-20 05:15:00,
2013-02-19 23:20:00,36.1,32.9,30.29,NW,314,0.0,0.0,88,0.00,,,0.00,WeatherCatV1.02B3,2013-02-20 05:20:00,
2013-02-19 23:25:00,35.9,32.7,30.29,NW,314,0.0,0.0,88,0.00,,,0.00,WeatherCatV1.02B3,2013-02-20 05:25:00,
2013-02-19 23:30:00,35.8,32.9,30.29,NW,314,0.0,0.0,89,0.00,,,0.00,WeatherCatV1.02B3,2013-02-20 05:30:00,
2013-02-19 23:35:00,35.8,32.9,30.29,NW,314,0.0,0.0,89,0.00,,,0.00,WeatherCatV1.02B3,2013-02-20 05:35:00,
2013-02-19 23:40:00,35.6,32.7,30.29,NW,314,0.0,0.0,89,0.00,,,0.00,WeatherCatV1.02B3,2013-02-20 05:40:00,
2013-02-19 23:45:00,35.5,32.6,30.29,NW,314,0.0,0.0,89,0.00,,,0.00,WeatherCatV1.02B3,2013-02-20 05:45:00,
2013-02-19 23:50:00,35.3,32.7,30.29,NW,314,0.0,0.0,90,0.00,,,0.00,WeatherCatV1.02B3,2013-02-20 05:50:00,
2013-02-19 23:55:00,35.1,32.2,30.29,NW,314,0.0,0.0,89,0.00,,,0.00,WeatherCatV1.02B3,2013-02-20 05:55:00,